Skip Page Navigation
NASA JPL Caltech
NASA Logo - Jet Propulsion Laboratory + View the NASA Portal
+ Center for Near-Earth Object Studies
JPL Home Earth Solar System Stars & Galaxies Technology
JPL Solar System Dynamics
BODIES ORBITS EPHEMERIDES TOOLS PHYSICAL DATA DISCOVERY FAQ SITE MAP
IMPORTANT: The SSD Announcement email list is now available. Major changes are coming in the near future, including possible hostname and/or URL changes. To be notified of such changes, subscribe to this email list.

Please visit this page for more details.


JPL Small-Body Database Browser
Search: [ help ]  
80468 (2000 AE26)
Classification: Main-belt Asteroid          SPK-ID: 2080468
Ephemeris | Orbit Diagram | Orbital Elements | Mission Design | Physical Parameters | Discovery Circumstances | Close-Approach Data ]

[ show orbit diagram ]
Orbital Elements at Epoch 2458600.5 (2019-Apr-27.0) TDB
Reference: JPL 16 (heliocentric ecliptic J2000)
 Element Value Uncertainty (1-sigma)   Units 
e .1653450362224731 4.1951e-08  
a 2.380308222657341 1.0483e-08 au
q 1.986736073361413 1.0081e-07 au
i 4.505006027177946 3.9754e-06 deg
node 95.09300881902736 7.8676e-05 deg
peri 327.3787428388065 8.0708e-05 deg
M 122.8139617399715 1.7807e-05 deg
tp 2458142.892153625321
(2018-Jan-24.39215363)
6.5763e-05 TDB
period 1341.368866869376
3.67
8.8613e-06
2.426e-08
d
yr
n .2683825522506756 1.773e-09 deg/d
Q 2.77388037195327 1.2216e-08 au
  Orbit Determination Parameters
   # obs. used (total)      526  
   data-arc span      8589 days (23.52 yr)  
   first obs. used      1995-10-26  
   last obs. used      2019-05-02  
   planetary ephem.      DE431  
   SB-pert. ephem.      SB431-N16  
   condition code      0  
   norm. resid. RMS      .55724  
   source      ORB  
   producer      Otto Matic  
   solution date      2019-Jul-13 05:42:23  

Additional Information
 Earth MOID = 1.00141 au 
 Jupiter MOID = 2.53443 au 
 T_jup = 3.516 
[ show covariance matrix ]

Ephemeris | Orbit Diagram | Orbital Elements | Mission Design | Physical Parameters | Discovery Circumstances | Close-Approach Data ]

Physical Parameter Table
Parameter Symbol Value Units Sigma Reference Notes
absolute magnitude H 16.3   n/a MPO337863  

80468 (2000 AE26)          Discovered 2000-Jan-03 by LINEAR at Socorro
Reference: 20040504/Numbers.arcLast Updated: 2004-07-16

[ show close-approach data ]
Alternate Designations
 2000 AE26 = 2002 QS31 
Ephemeris | Orbit Diagram | Orbital Elements | Mission Design | Physical Parameters | Discovery Circumstances | Close-Approach Data ]
ABOUT SSD CREDITS/AWARDS PRIVACY/COPYRIGHT GLOSSARY LINKS
FirstGov 2020-Jan-22 05:33 UT
(server date/time)  
NASA Home Page
Site Manager:   Ryan S. Park
Webmaster  Alan B. Chamberlin